| time (UTC) | temp F | wind direction | speed MPH | gust MPH | rain 1hr in | rain 24hr in | rain mn in | humidity % | barometer mb |
| 20260906031519 | 90 | 61 | 0.0 | 4.0 | 0.00 | 0.00 | 0.00 | 63 | 1011.7 |
| 20260906030011 | 90 | 17 | 0.0 | 6.0 | 0.00 | 0.00 | 0.00 | 61 | 1011.8 |
| 20260906024510 | 90 | 94 | 0.0 | 4.0 | 0.00 | 0.00 | 0.00 | 58 | 1011.6 |
| 20260906023009 | 91 | 348 | 1.0 | 5.0 | 0.00 | 0.00 | 0.00 | 57 | 1011.4 |
| 20260906021510 | 91 | 23 | 1.0 | 4.0 | 0.00 | 0.00 | 0.00 | 55 | 1011.2 |
| 20260906020009 | 91 | 14 | 0.0 | 2.0 | 0.00 | 0.00 | 0.00 | 54 | 1011.1 |
| 20260906014511 | 91 | 121 | 0.0 | 2.0 | 0.00 | 0.00 | 0.00 | 54 | 1010.9 |
| 20260906013008 | 91 | 105 | 0.0 | 1.0 | 0.00 | 0.00 | 0.00 | 54 | 1010.8 |
| 20260906011508 | 91 | 106 | 0.0 | 1.0 | 0.00 | 0.00 | 0.00 | 55 | 1010.5 |
| 20260906010007 | 92 | 106 | 0.0 | 0.0 | 0.00 | 0.00 | 0.00 | 53 | 1010.4 |
| 20260906004506 | 94 | 106 | 0.0 | 1.0 | 0.00 | 0.00 | 0.00 | 52 | 1010.2 |
| 20260906003006 | 94 | 50 | 0.0 | 1.0 | 0.00 | 0.00 | 0.00 | 51 | 1010.3 |
| 20260906001507 | 95 | 153 | 0.0 | 1.0 | 0.00 | 0.00 | 0.00 | 49 | 1010.2 |
| 20260906000005 | 95 | 185 | 0.0 | 4.0 | 0.00 | 0.00 | 0.00 | 47 | 1010.1 |
| 20260905234506 | 96 | 32 | 0.0 | 3.0 | 0.00 | 0.00 | 0.00 | 48 | 1010.2 |
| 20260905233004 | 96 | 294 | 0.0 | 1.0 | 0.00 | 0.00 | 0.00 | 47 | 1010.2 |
| 20260905231504 | 96 | 18 | 0.0 | 2.0 | 0.00 | 0.00 | 0.00 | 46 | 1010.4 |
| 20260905230003 | 97 | 356 | 0.0 | 6.0 | 0.00 | 0.00 | 0.00 | 45 | 1010.3 |
| 20260905224503 | 98 | 311 | 2.0 | 5.0 | 0.00 | 0.00 | 0.00 | 42 | 1010.2 |
| 20260905223001 | 99 | 307 | 4.0 | 8.0 | 0.00 | 0.00 | 0.00 | 40 | 1010.0 |
| 20260905221501 | 99 | 294 | 2.0 | 6.0 | 0.00 | 0.00 | 0.00 | 40 | 1010.2 |
| 20260905220101 | 100 | 301 | 4.0 | 8.0 | 0.00 | 0.00 | 0.00 | 39 | 1010.1 |
| 20260905214607 | 100 | 300 | 4.0 | 10.0 | 0.00 | 0.00 | 0.00 | 39 | 1010.1 |
| 20260905213104 | 101 | 326 | 3.0 | 9.0 | 0.00 | 0.00 | 0.00 | 40 | 1010.1 |
| 20260905211558 | 101 | 278 | 3.0 | 7.0 | 0.00 | 0.00 | 0.00 | 39 | 1010.2 |
| 20260905210106 | 101 | 345 | 3.0 | 9.0 | 0.00 | 0.00 | 0.00 | 40 | 1010.4 |
| 20260905204554 | 100 | 299 | 3.0 | 7.0 | 0.00 | 0.00 | 0.00 | 40 | 1010.4 |
| 20260905203058 | 100 | 354 | 4.0 | 9.0 | 0.00 | 0.00 | 0.00 | 42 | 1010.5 |
| 20260905201552 | 101 | 299 | 2.0 | 11.0 | 0.00 | 0.00 | 0.00 | 39 | 1010.6 |
| 20260905194548 | 102 | 299 | 3.0 | 5.0 | 0.00 | 0.00 | 0.00 | 38 | 1011.0 |
| 20260905193046 | 102 | 36 | 1.0 | 8.0 | 0.00 | 0.00 | 0.00 | 38 | 1011.3 |
| 20260905191546 | 101 | 306 | 1.0 | 8.0 | 0.00 | 0.00 | 0.00 | 41 | 1011.3 |
| 20260905190050 | 102 | 321 | 2.0 | 5.0 | 0.00 | 0.00 | 0.00 | 39 | 1011.5 |
| 20260905184540 | 101 | 60 | 1.0 | 6.0 | 0.00 | 0.00 | 0.00 | 40 | 1011.7 |
| 20260905183038 | 100 | 323 | 1.0 | 7.0 | 0.00 | 0.00 | 0.00 | 43 | 1011.9 |
| 20260905181538 | 100 | 336 | 2.0 | 6.0 | 0.00 | 0.00 | 0.00 | 43 | 1012.0 |
| 20260905180051 | 100 | 319 | 0.0 | 8.0 | 0.00 | 0.00 | 0.00 | 46 | 1012.0 |
| 20260905174535 | 100 | 255 | 1.0 | 4.0 | 0.00 | 0.00 | 0.00 | 46 | 1012.1 |
| 20260905173033 | 98 | 318 | 0.0 | 6.0 | 0.00 | 0.00 | 0.00 | 48 | 1012.3 |
| 20260905171547 | 98 | 271 | 0.0 | 4.0 | 0.00 | 0.00 | 0.00 | 49 | 1012.4 |
| 20260905170028 | 97 | 302 | 1.0 | 6.0 | 0.00 | 0.00 | 0.00 | 49 | 1012.6 |
| 20260905164524 | 96 | 305 | 2.0 | 6.0 | 0.00 | 0.00 | 0.00 | 50 | 1012.8 |
| 20260905163020 | 96 | 295 | 3.0 | 7.0 | 0.00 | 0.00 | 0.00 | 50 | 1012.9 |
| 20260905161524 | 95 | 302 | 2.0 | 5.0 | 0.00 | 0.00 | 0.00 | 49 | 1013.0 |
| 20260905160022 | 95 | 300 | 1.0 | 5.0 | 0.00 | 0.00 | 0.00 | 52 | 1013.0 |
| 20260905154514 | 94 | 297 | 1.0 | 7.0 | 0.00 | 0.00 | 0.00 | 52 | 1013.0 |
| 20260905153013 | 94 | 318 | 2.0 | 4.0 | 0.00 | 0.00 | 0.00 | 52 | 1013.0 |
| 20260905151510 | 94 | 245 | 0.0 | 4.0 | 0.00 | 0.00 | 0.00 | 55 | 1013.0 |
| 20260905150006 | 92 | 299 | 0.0 | 3.0 | 0.00 | 0.00 | 0.00 | 57 | 1013.1 |
| 20260905144504 | 91 | 309 | 0.0 | 2.0 | 0.00 | 0.00 | 0.00 | 58 | 1013.0 |
| 20260905143003 | 91 | 222 | 0.0 | 1.0 | 0.00 | 0.00 | 0.00 | 59 | 1012.9 |
| 20260905141558 | 89 | 287 | 0.0 | 1.0 | 0.00 | 0.00 | 0.00 | 62 | 1012.9 |
| 20260905134600 | 88 | 288 | 0.0 | 3.0 | 0.00 | 0.00 | 0.00 | 63 | 1012.9 |
| 20260905133051 | 87 | 312 | 0.0 | 3.0 | 0.00 | 0.00 | 0.00 | 64 | 1012.8 |
| 20260905131548 | 86 | 225 | 0.0 | 2.0 | 0.00 | 0.00 | 0.00 | 66 | 1012.7 |
| 20260905130047 | 85 | 314 | 0.0 | 2.0 | 0.00 | 0.00 | 0.00 | 66 | 1012.6 |
| 20260905124552 | 84 | 297 | 0.0 | 1.0 | 0.00 | 0.00 | 0.00 | 67 | 1012.4 |
| 20260905123044 | 84 | 274 | 0.0 | 1.0 | 0.00 | 0.00 | 0.00 | 68 | 1012.4 |
| 20260905121547 | 83 | 242 | 0.0 | 1.0 | 0.00 | 0.00 | 0.00 | 68 | 1012.2 |
| 20260905120057 | 83 | 242 | 0.0 | 0.0 | 0.00 | 0.00 | 0.00 | 68 | 1012.1 |
| 20260905114558 | 83 | 250 | 0.0 | 1.0 | 0.00 | 0.00 | 0.00 | 68 | 1012.0 |
| 20260905113053 | 83 | 239 | 0.0 | 1.0 | 0.00 | 0.00 | 0.00 | 68 | 1011.8 |
| 20260905111627 | 83 | 146 | 0.0 | 0.0 | 0.00 | 0.00 | 0.00 | 68 | 1011.8 |
| 20260905110042 | 83 | 146 | 0.0 | 1.0 | 0.00 | 0.00 | 0.00 | 68 | 1011.7 |
| 20260905104542 | 83 | 108 | 0.0 | 1.0 | 0.00 | 0.00 | 0.00 | 68 | 1011.7 |
| 20260905103041 | 83 | 108 | 0.0 | 0.0 | 0.00 | 0.00 | 0.00 | 68 | 1011.7 |
| 20260905101543 | 83 | 108 | 0.0 | 0.0 | 0.00 | 0.00 | 0.00 | 69 | 1011.8 |
| 20260905100040 | 83 | 108 | 0.0 | 0.0 | 0.00 | 0.00 | 0.00 | 69 | 1011.8 |
| 20260905094538 | 83 | 108 | 0.0 | 0.0 | 0.00 | 0.00 | 0.00 | 68 | 1011.8 |
| 20260905093041 | 83 | 108 | 0.0 | 0.0 | 0.00 | 0.00 | 0.00 | 68 | 1011.8 |
| 20260905091536 | 84 | 108 | 0.0 | 0.0 | 0.00 | 0.00 | 0.00 | 67 | 1011.9 |
| 20260905090035 | 84 | 108 | 0.0 | 0.0 | 0.00 | 0.00 | 0.00 | 67 | 1011.7 |
| 20260905084534 | 84 | 128 | 0.0 | 0.0 | 0.00 | 0.00 | 0.00 | 67 | 1011.8 |
| 20260905083033 | 84 | 128 | 0.0 | 0.0 | 0.00 | 0.00 | 0.00 | 68 | 1011.8 |
| 20260905081531 | 84 | 128 | 0.0 | 0.0 | 0.00 | 0.00 | 0.00 | 68 | 1011.9 |
| 20260905080033 | 84 | 128 | 0.0 | 0.0 | 0.00 | 0.00 | 0.00 | 67 | 1012.1 |
| 20260905074528 | 85 | 128 | 0.0 | 1.0 | 0.00 | 0.00 | 0.00 | 66 | 1012.1 |
| 20260905073035 | 85 | 335 | 0.0 | 0.0 | 0.00 | 0.00 | 0.00 | 66 | 1012.2 |
| 20260905071526 | 85 | 283 | 0.0 | 0.0 | 0.00 | 0.00 | 0.00 | 66 | 1012.3 |
| 20260905070043 | 85 | 283 | 0.0 | 0.0 | 0.00 | 0.00 | 0.00 | 66 | 1012.2 |
| 20260905064537 | 85 | 283 | 0.0 | 0.0 | 0.00 | 0.00 | 0.00 | 66 | 1012.3 |
| 20260905063024 | 85 | 283 | 0.0 | 0.0 | 0.00 | 0.00 | 0.00 | 65 | 1012.3 |
| 20260905061521 | 85 | 283 | 0.0 | 0.0 | 0.00 | 0.00 | 0.00 | 64 | 1012.3 |
| 20260905060023 | 86 | 283 | 0.0 | 0.0 | 0.00 | 0.00 | 0.00 | 64 | 1012.4 |
| 20260905054532 | 86 | 283 | 0.0 | 0.0 | 0.00 | 0.00 | 0.00 | 63 | 1012.4 |
| 20260905053018 | 86 | 283 | 0.0 | 0.0 | 0.00 | 0.00 | 0.00 | 63 | 1012.4 |
| 20260905051527 | 86 | 283 | 0.0 | 0.0 | 0.00 | 0.00 | 0.00 | 63 | 1012.4 |
| 20260905050014 | 86 | 283 | 0.0 | 0.0 | 0.00 | 0.00 | 0.00 | 63 | 1012.3 |
| 20260905044514 | 86 | 283 | 0.0 | 0.0 | 0.00 | 0.00 | 0.00 | 62 | 1012.3 |
| 20260905043013 | 87 | 283 | 0.0 | 0.0 | 0.00 | 0.00 | 0.00 | 62 | 1012.3 |
| 20260905041513 | 87 | 283 | 0.0 | 0.0 | 0.00 | 0.00 | 0.00 | 62 | 1012.2 |
| 20260905040021 | 87 | 283 | 0.0 | 0.0 | 0.00 | 0.00 | 0.00 | 62 | 1012.2 |
| 20260905034524 | 87 | 283 | 0.0 | 0.0 | 0.00 | 0.00 | 0.00 | 62 | 1012.2 |
| 20260905033021 | 87 | 283 | 0.0 | 0.0 | 0.00 | 0.00 | 0.00 | 61 | 1012.3 |